Domov               UVHVVR             MKGP            O straneh              
ZDRAVSTVENO VARSTVO RASTLIN
  MREŽA AGROMET. POSTAJ
 ► PROGNOSTIČNA OBVESTILA
AGROMETEOROLOŠKI PODATKI -
ARSO
OBVLADOVANJE TVEGANJ ZARADI
NEUGODNIH VREMENSKIH RAZMER
  ► NARAVNE NESREČE
  ► SUŠA/MOČA
  ► NAMAKANJE
  ► ŽLED (gozdarstvo)
KARTOGRAFSKI PRIKAZI
SPLETNE POVEZAVE
PROJEKTI IN PUBLIKACIJE

AGROMETEOROLOŠKA MREŽA: VREMENSKE POSTAJE IN FENOLOŠKA OPAZOVANJA

Pregled podatkov za lokacijo Sremič, meteorološka postaja 49592

Pregled senzorjev na lokaciji

ID Ime Zadnja
vrednost
Datum
zadnje
spremembe
Tip
senzorja
3945 Relativna vlaga 2 m (% RH) 32,92 % RH 21.8.2017 15:30 Generic 0 - 100 %
3946 Temperatura 2 m ( °C) 24,21 °C 21.8.2017 15:30 Generic -40 - +60 °C
3947 Omočenost lista (U) 0 U 21.8.2017 15:30 A730WET
3948 Padavine 0.2 mm (mm) 0 mm 21.8.2017 15:30 Generic 0.2 mm

Pregled podatkov zadnjih 24 ur

Zap.
št.
Datum in čas Sremič
Omočenost
lista
Padavine
0.2
mm
Relativna
vlaga
2
m
Temperatura
2
m
0 21.8.2017 14:30 0 0 32,92 24,21
1 21.8.2017 14:00 0 0 33,18 23,94
2 21.8.2017 13:30 0 0 32,8 23,91
3 21.8.2017 13:00 0 0 33,32 23,74
4 21.8.2017 12:30 0 0 36,21 22,75
5 21.8.2017 12:00 0 0 37,8 23,09
6 21.8.2017 11:30 0 0 34,14 23,46
7 21.8.2017 11:00 0 0 36,66 23,17
8 21.8.2017 10:30 0 0 38,58 22,44
9 21.8.2017 10:00 0 0 39,12 21,17
10 21.8.2017 09:30 0 0 46,56 21,31
11 21.8.2017 09:00 0 0 44,41 21,27
12 21.8.2017 08:30 0 0 45,53 20,02
13 21.8.2017 08:00 0 0 49,12 18,03
14 21.8.2017 07:30 0 0 52,17 17,41
15 21.8.2017 07:00 0 0 50,82 16,08
16 21.8.2017 06:30 0 0 54,96 14,07
17 21.8.2017 06:00 0 0 55,16 13,4
18 21.8.2017 05:30 0 0 57,56 12,75
19 21.8.2017 05:00 0 0 64,37 12,27
20 21.8.2017 04:30 0 0 63,1 12,25
21 21.8.2017 04:00 0 0 59,58 13,05
22 21.8.2017 03:30 0 0 53,65 13,58
23 21.8.2017 03:00 0 0 53,34 13,93
24 21.8.2017 02:30 0 0 52,59 13,97
25 21.8.2017 02:00 0 0 49,68 14,35
26 21.8.2017 01:30 0 0 51,44 14,24
27 21.8.2017 01:00 0 0 52,59 14,59
28 21.8.2017 00:30 0 0 52,41 14,83
29 21.8.2017 00:00 0 0 53,28 15,01
30 20.8.2017 23:30 0 0 55,35 15,1
31 20.8.2017 23:00 0 0 56,01 15,16
32 20.8.2017 22:30 0 0 58,19 15,46
33 20.8.2017 22:00 0 0 56,22 16,05
34 20.8.2017 21:30 0 0 57,4 16,3
35 20.8.2017 21:00 0 0 58,1 16,34
36 20.8.2017 20:30 0 0 56,36 16,62
37 20.8.2017 20:00 0 0 55,2 16,81
38 20.8.2017 19:30 0 0 56,03 16,94
39 20.8.2017 19:00 0 0 55,99 17,16
40 20.8.2017 18:30 0 0 58,03 17,56
41 20.8.2017 18:00 0 0 56,89 18,09
42 20.8.2017 17:30 0 0 52,33 18,85
43 20.8.2017 17:00 0 0 43,27 20,94
44 20.8.2017 16:30 0 0 42,71 22,44
© 2011 Ministrstvo za kmetijstvo, gozdarstvo in prehrano. Vse pravice pridržane.